This demonstration page uses our WeatherBlox Daily Observations layout. Learn more.

Left ArrowRight Arrow

39.08367, -84.50855

Hourly Observations for December 7, 2015

Temp ( °F °C ) Dew Point ( °F °C ) Humidity (%) Winds ( mph kmh ) Pressure ( in mb ) Visibility ( mi km ) Precip ( " mm )
12:53 am 00:53 Cloudy 37 2.8 35 1.7 93 93 Calm 30.24 1024 10 16 0.00 0.00
1:53 am 01:53 Cloudy 38 3.3 35 1.7 89 89 Calm 30.22 1024 10 16 0.00 0.00
2:53 am 02:53 Cloudy 38 3.3 36 2.2 93 93 Calm 30.22 1023 10 16 0.00 0.00
3:53 am 03:53 Cloudy with Light Rain 38 3.3 36 2.2 93 93 SSW 3 6 30.22 1023 10 16 0.00 0.03
4:53 am 04:53 Cloudy with Light Rain 39 3.9 38 3.3 96 96 Calm 30.21 1023 8 13 0.01 0.25
5:53 am 05:53 Cloudy with Light Rain 39 3.9 38 3.3 96 96 Calm 30.22 1023 7 11 0.02 0.51
6:53 am 06:53 Cloudy with Light Rain 39 3.9 38 3.3 96 96 Calm 30.23 1024 5 8 0.02 0.51
7:53 am 07:53 Cloudy with Light Rain 39 3.9 38 3.3 96 96 Calm 30.23 1024 7 11 0.01 0.25
8:53 am 08:53 Cloudy with Light Rain 41 5 40 4.4 96 96 Calm 30.24 1024 4 6 0.02 0.51
9:53 am 09:53 Cloudy with Mist and Fog 43 6.1 42 5.6 97 97 Calm 30.25 1024 6 10 0.01 0.25
10:53 am 10:53 Cloudy 46 7.8 42 5.6 86 86 Calm 30.25 1024 7 11 0.00 0.00
11:53 am 11:53 Cloudy 47 8.3 42 5.6 83 83 W 6 9 30.24 1024 8 13 0.00 0.00
12:53 pm 12:53 Cloudy 48 8.9 42 5.6 80 80 W 5 7 30.22 1024 9 14 0.00 0.00
1:53 pm 13:53 Cloudy 49 9.4 42 5.6 77 77 WSW 3 6 30.20 1023 10 16 0.00 0.00
2:53 pm 14:53 Mostly Cloudy 49 9.4 41 5 74 74 VRB 3 6 30.19 1022 10 16 0.00 0.00
3:53 pm 15:53 Mostly Cloudy 48 8.9 41 5 77 77 SSW 6 9 30.18 1022 10 16 0.00 0.00
4:53 pm 16:53 Cloudy 49 9.4 41 5 74 74 W 8 13 30.21 1023 10 16 0.00 0.00
5:53 pm 17:53 Cloudy 48 8.9 41 5 77 77 WSW 6 9 30.21 1023 10 16 0.00 0.00
6:53 pm 18:53 Cloudy 47 8.3 41 5 80 80 S 5 7 30.21 1023 10 16 0.00 0.00
7:53 pm 19:53 Cloudy 47 8.3 41 5 80 80 S 5 7 30.19 1023 10 16 0.00 0.00
8:53 pm 20:53 Cloudy 46 7.8 41 5 83 83 SSE 5 7 30.19 1022 10 16 0.00 0.00
9:53 pm 21:53 Cloudy 46 7.8 40 4.4 79 79 SSE 5 7 30.17 1022 10 16 0.00 0.00
10:53 pm 22:53 Cloudy 45 7.2 40 4.4 83 83 SSW 3 6 30.17 1022 10 16 0.00 0.00
11:06 pm 23:06 Cloudy 45 7.2 40 4.4 83 83 Calm 30.15 1021 10 16 0.00 0.00
11:53 pm 23:53 Cloudy 44 6.7 41 5 89 89 Calm 30.16 1021 10 16 0.00 0.00

Powered by AerisWeather